Kremmling, CO

12:08 AM MDT on April 30, 2017 (GMT -0600)
Kremmling

Weather History for K20V - January, 2014

Change the Weather History Date:

Tuesday, January 7, 2014

  Actual Average Record
Temperature  
Mean Temperature 0 °F -  
Max Temperature 12 °F - 44 °F (2006)
Min Temperature -13 °F - -26 °F (2017)
Degree Days  
Heating Degree Days 66    
Month to date heating degree days  
Cooling Degree Days 0    
Month to date cooling degree days  
Moisture  
Dew Point -4 °F    
Average Humidity 73    
Maximum Humidity 85    
Minimum Humidity 57    
Precipitation  
Precipitation 0.00 in - 0.05 in (2012)
Sea Level Pressure  
Sea Level Pressure 30.18 in    
Wind  
Wind Speed 0 mph (ESE)    
Max Wind Speed 5 mph    
Max Gust Speed -    
Visibility 8 miles    
Events Snow    
T = Trace of Precipitation, MM = Missing Value Source: NWS Daily Summary

Daily Weather History Graph

Daily Weather History Graph

Search for Another Location

Airport or City:

Trip Planner

Search our weather history database for the weather conditions in past years. The results will help you decide how hot, cold, wet, or windy it might be!

Date:

Astronomy

Jan. 07, 2014 Rise Set
Actual Time 7:27 AM MST 4:56 PM MST
Civil Twilight 6:57 AM MST 5:26 PM MST
Nautical Twilight 6:23 AM MST 6:00 PM MST
Astronomical Twilight 5:50 AM MST 6:33 PM MST
Moon 11:17 AM MST (1/7) No Moon Set
Length of Visible Light 10h 29m
Length of Day
9h 28m
Waxing Crescent, 46% of the Moon is Illuminated
Jan 7
Waxing Crescent
Jan 7
First Quarter
Jan 15
Full
Jan 23
Last Quarter
Jan 30
New

Hourly Weather History & Observations

Time (MST) Temp. Windchill Dew Point Humidity Pressure Visibility Wind Dir Wind Speed Gust Speed Precip Events Conditions
12:15 AM -7.6 °F - -13.0 °F 77% 30.33 in 5.0 mi Calm Calm - N/A   Haze
12:35 AM -5.8 °F - -13.0 °F 71% 30.33 in 10.0 mi Calm Calm - N/A   Clear
12:55 AM -7.6 °F -16.5 °F -13.0 °F 77% 30.32 in 10.0 mi ESE 3.5 mph - N/A   Clear
1:15 AM -5.8 °F - -9.4 °F 84% 30.32 in 10.0 mi Calm Calm - N/A   Clear
1:35 AM -7.6 °F - -13.0 °F 77% 30.32 in 10.0 mi Calm Calm - N/A   Clear
1:55 AM -5.8 °F - -13.0 °F 71% 30.32 in 10.0 mi Calm Calm - N/A   Clear
2:15 AM -7.6 °F - -13.0 °F 77% 30.32 in 7.0 mi Calm Calm - N/A   Clear
2:35 AM -7.6 °F - -14.8 °F 71% 30.32 in 10.0 mi Calm Calm - N/A   Clear
2:55 AM -9.4 °F - -14.8 °F 77% 30.32 in 10.0 mi Calm Calm - N/A   Clear
3:15 AM -7.6 °F - -14.8 °F 71% 30.32 in 10.0 mi Calm Calm - N/A   Clear
3:35 AM -13.0 °F - -18.4 °F 77% 30.31 in 10.0 mi Calm Calm - N/A   Clear
3:55 AM -9.4 °F - -14.8 °F 77% 30.31 in 10.0 mi Calm Calm - N/A   Clear
4:15 AM -9.4 °F - -14.8 °F 77% 30.30 in 10.0 mi Calm Calm - N/A   Clear
4:34 AM -9.4 °F - -14.8 °F 77% 30.30 in 10.0 mi Calm Calm - N/A   Clear
4:55 AM -9.4 °F - -14.8 °F 77% 30.30 in 10.0 mi Calm Calm - N/A   Clear
5:15 AM -9.4 °F - -16.6 °F 71% 30.29 in 10.0 mi Calm Calm - N/A   Clear
5:35 AM -13.0 °F - -18.4 °F 77% 30.29 in 10.0 mi Calm Calm - N/A   Clear
5:55 AM -13.0 °F - -18.4 °F 77% 30.28 in 10.0 mi Calm Calm - N/A   Clear
6:15 AM -9.4 °F - -14.8 °F 77% 30.28 in 10.0 mi Calm Calm - N/A   Clear
6:35 AM -13.0 °F - -18.4 °F 77% 30.28 in 10.0 mi Calm Calm - N/A   Clear
6:55 AM -13.0 °F - -18.4 °F 77% 30.27 in 10.0 mi Calm Calm - N/A   Clear
7:15 AM -13.0 °F - -18.4 °F 77% 30.28 in 10.0 mi Calm Calm - N/A   Clear
7:35 AM -11.2 °F - -16.6 °F 77% 30.28 in 7.0 mi Calm Calm - N/A   Clear
7:55 AM -9.4 °F - -16.6 °F 71% 30.27 in 10.0 mi Calm Calm - N/A   Clear
8:15 AM -9.4 °F - -16.6 °F 71% 30.27 in 5.0 mi Calm Calm - N/A   Haze
8:35 AM -9.4 °F - -14.8 °F 77% 30.27 in 10.0 mi Calm Calm - N/A   Clear
8:55 AM -7.6 °F - -13.0 °F 77% 30.26 in 10.0 mi Calm Calm - N/A   Clear
9:15 AM -5.8 °F - -13.0 °F 71% 30.26 in 2.0 mi Calm Calm - N/A   Haze
9:34 AM -4.0 °F - -9.4 °F 78% 30.26 in 10.0 mi Calm Calm - N/A   Clear
9:55 AM -2.2 °F - -9.4 °F 71% 30.25 in 2.5 mi Calm Calm - N/A   Haze
10:15 AM -0.4 °F - -7.6 °F 72% 30.24 in 7.0 mi Calm Calm - N/A   Clear
10:35 AM -0.4 °F - -7.6 °F 72% 30.23 in 10.0 mi Calm Calm - N/A   Clear
10:55 AM 1.4 °F - -7.6 °F 66% 30.22 in 10.0 mi Calm Calm - N/A   Clear
11:14 AM 3.2 °F - -5.8 °F 66% 30.20 in 10.0 mi Calm Calm - N/A   Clear
11:35 AM 6.8 °F - -4.0 °F 61% 30.18 in 10.0 mi Calm Calm - N/A   Mostly Cloudy
11:55 AM 5.0 °F - -4.0 °F 66% 30.16 in 10.0 mi Calm Calm - N/A   Scattered Clouds
12:14 PM 8.6 °F - -4.0 °F 57% 30.14 in 10.0 mi Calm Calm - N/A   Clear
12:32 PM 10.4 °F - -2.2 °F 57% 30.13 in 10.0 mi Calm Calm - N/A   Clear
12:54 PM 10.4 °F - -2.2 °F 57% 30.11 in 10.0 mi Calm Calm - N/A   Scattered Clouds
1:13 PM 12.2 °F - -0.4 °F 57% 30.10 in 10.0 mi Calm Calm - N/A   Clear
1:33 PM 12.2 °F - -0.4 °F 57% 30.10 in 10.0 mi Calm Calm - N/A   Clear
1:52 PM 12.2 °F - -0.4 °F 57% 30.09 in 10.0 mi Calm Calm - N/A   Clear
2:15 PM 12.2 °F - -0.4 °F 57% 30.09 in 10.0 mi Calm Calm - N/A   Scattered Clouds
2:35 PM 12.2 °F - 1.4 °F 62% 30.09 in 10.0 mi Calm Calm - N/A   Mostly Cloudy
2:55 PM 12.2 °F - 1.4 °F 62% 30.09 in 10.0 mi Calm Calm - N/A   Overcast
3:13 PM 12.2 °F - 1.4 °F 62% 30.09 in 10.0 mi Calm Calm - N/A   Overcast
3:35 PM 12.2 °F 6.1 °F 1.4 °F 62% 30.10 in 10.0 mi ESE 3.5 mph - N/A   Overcast
3:55 PM 12.2 °F 4.3 °F 1.4 °F 62% 30.10 in 10.0 mi ESE 4.6 mph - N/A   Overcast
4:15 PM 12.2 °F - 1.4 °F 62% 30.10 in 10.0 mi Calm Calm - N/A   Overcast
4:33 PM 12.2 °F - 1.4 °F 62% 30.10 in 10.0 mi Calm Calm - N/A   Overcast
4:52 PM 12.2 °F - 3.2 °F 67% 30.09 in 10.0 mi Calm Calm - N/A   Overcast
5:14 PM 12.2 °F - 3.2 °F 67% 30.09 in 10.0 mi Calm Calm - N/A   Overcast
5:35 PM 12.2 °F - 3.2 °F 67% 30.09 in 7.0 mi Calm Calm - N/A Snow Light Snow
5:55 PM 12.2 °F - 5.0 °F 73% 30.09 in 2.5 mi Calm Calm - N/A Snow Light Snow
6:15 PM 12.2 °F - 8.6 °F 85% 30.09 in 4.0 mi Calm Calm - N/A Snow Light Snow
6:35 PM 12.2 °F - 6.8 °F 79% 30.09 in 4.0 mi Calm Calm - N/A Snow Light Snow
6:55 PM 12.2 °F - 6.8 °F 79% 30.09 in 10.0 mi Calm Calm - N/A   Overcast
7:14 PM 12.2 °F - 6.8 °F 79% 30.08 in 5.0 mi Calm Calm - N/A Snow Light Snow
7:35 PM 12.2 °F - 8.6 °F 85% 30.07 in 5.0 mi Calm Calm - N/A Snow Light Snow
7:55 PM 12.2 °F - 8.6 °F 85% 30.07 in 10.0 mi Calm Calm - N/A Snow Light Snow
8:15 PM 12.2 °F - 8.6 °F 85% 30.07 in 10.0 mi Calm Calm - N/A   Overcast
8:35 PM 12.2 °F - 8.6 °F 85% 30.07 in 7.0 mi Calm Calm - N/A Snow Light Snow
8:55 PM 12.2 °F - 8.6 °F 85% 30.07 in 4.0 mi Calm Calm - N/A Snow Light Snow
9:11 PM 12.2 °F - 8.6 °F 85% 30.07 in 2.5 mi Calm Calm - N/A Snow Light Snow
9:35 PM 12.2 °F - 8.6 °F 85% 30.07 in 4.0 mi Calm Calm - N/A Snow Light Snow
9:55 PM 12.2 °F - 8.6 °F 85% 30.06 in 3.0 mi Calm Calm - N/A Snow Light Snow
10:12 PM 12.2 °F - 8.6 °F 85% 30.07 in 5.0 mi Calm Calm - N/A Snow Light Snow
10:35 PM 12.2 °F - 8.6 °F 85% 30.07 in 2.5 mi Calm Calm - N/A Snow Light Snow
10:55 PM 12.2 °F - 8.6 °F 85% 30.07 in 3.0 mi Calm Calm - N/A Snow Light Snow
11:15 PM 12.2 °F - 8.6 °F 85% 30.07 in 4.0 mi Calm Calm - N/A Snow Light Snow
11:35 PM 12.2 °F - 8.6 °F 85% 30.06 in 5.0 mi Calm Calm - N/A Snow Light Snow
11:52 PM 12.2 °F - 8.6 °F 85% 30.06 in 7.0 mi Calm Calm - N/A Snow Light Snow